GW2565 Weather Reports


time (UTC)temp
C
wind
direction
speed
KPH
gust
KPH
rain 1hr
cm
rain 24hr
cm
rain mn
cm
humidity
%
barometer
mb
20260505004234 16 28 0.0 1.6 0.00 0.00 0.00 51 1012.2
20260505003731 16 107 4.8 4.8 0.00 0.00 0.00 50 1012.1
20260505003229 16 49 0.0 3.2 0.00 0.00 0.00 50 1012.1
20260505002725 16 64 1.6 11.3 0.00 0.00 0.00 50 1012.1
20260505002222 16 219 6.4 8.0 0.00 0.00 0.00 49 1011.9
20260505001720 17 89 1.6 4.8 0.00 0.00 0.00 48 1012.0
20260505001217 17 102 4.8 12.9 0.00 0.00 0.00 47 1011.9
20260505000714 17 111 4.8 8.0 0.00 0.00 0.00 46 1011.9
20260505000212 17 97 4.8 4.8 0.00 0.00 0.00 46 1011.9
20260504235708 17 124 8.0 11.3 0.00 0.00 0.00 45 1011.6
20260504235204 17 113 8.0 14.5 0.00 0.00 0.00 45 1011.8
20260504234702 17 77 4.8 9.7 0.00 0.00 0.00 45 1011.7
20260504234159 18 184 4.8 4.8 0.00 0.00 0.00 46 1011.7
20260504233655 17 198 8.0 14.5 0.00 0.00 0.00 44 1011.5
20260504233151 18 10 1.6 3.2 0.00 0.00 0.00 46 1011.5
20260504232649 18 40 0.0 9.7 0.00 0.00 0.00 44 1011.4
20260504232145 18 212 3.2 3.2 0.00 0.00 0.00 44 1011.5
20260504231642 18 44 1.6 8.0 0.00 0.00 0.00 42 1011.5
20260504231138 18 150 6.4 11.3 0.00 0.00 0.00 42 1011.3
20260504230635 18 96 4.8 8.0 0.00 0.00 0.00 42 1011.2
20260504230134 19 221 4.8 8.0 0.00 0.00 0.00 41 1011.4
20260504225632 19 19 0.0 8.0 0.00 0.00 0.00 42 1011.2
20260504225127 19 7 1.6 9.7 0.00 0.00 0.00 42 1011.2
20260504224624 20 29 3.2 16.1 0.00 0.00 0.00 41 1011.1
20260504224121 20 39 1.6 3.2 0.00 0.00 0.00 44 1011.1
20260504223618 20 68 6.4 12.9 0.00 0.00 0.00 39 1011.2
20260504223114 20 210 6.4 12.9 0.00 0.00 0.00 39 1011.0
20260504222611 20 72 1.6 3.2 0.00 0.00 0.00 40 1011.2
20260504222108 20 358 1.6 8.0 0.00 0.00 0.00 40 1011.1
20260504221605 20 77 1.6 4.8 0.00 0.00 0.00 40 1011.0
20260504221102 20 11 1.6 4.8 0.00 0.00 0.00 38 1011.2
20260504220558 20 21 4.8 8.0 0.00 0.00 0.00 38 1011.1
20260504220056 20 54 1.6 9.7 0.00 0.00 0.00 38 1011.2
20260504215552 20 192 3.2 11.3 0.00 0.00 0.00 38 1011.0
20260504215050 21 174 9.7 17.7 0.00 0.00 0.00 38 1011.2
20260504214545 21 82 4.8 4.8 0.00 0.00 0.00 38 1011.4
20260504214042 21 3 1.6 11.3 0.00 0.00 0.00 41 1011.4
20260504213538 21 344 3.2 4.8 0.00 0.00 0.00 38 1011.3
20260504213036 21 3 0.0 4.8 0.00 0.00 0.00 38 1011.6
20260504212531 21 7 1.6 14.5 0.00 0.00 0.00 38 1011.5
20260504212029 20 40 3.2 9.7 0.00 0.00 0.00 39 1011.7
20260504211526 21 9 4.8 9.7 0.00 0.00 0.00 37 1011.6
20260504211023 20 285 6.4 8.0 0.00 0.00 0.00 38 1011.6
20260504210520 21 179 1.6 9.7 0.00 0.00 0.00 38 1011.8
20260504210016 21 121 4.8 9.7 0.00 0.00 0.00 37 1011.7
20260504205515 21 23 1.6 4.8 0.00 0.00 0.00 37 1011.8
20260504205012 20 18 1.6 9.7 0.00 0.00 0.00 39 1011.7
20260504204510 22 272 4.8 16.1 0.00 0.00 0.00 38 1011.9
20260504204009 21 24 3.2 8.0 0.00 0.00 0.00 37 1011.7
20260504203506 21 290 8.0 11.3 0.00 0.00 0.00 38 1011.9
20260504203003 21 121 3.2 8.0 0.00 0.00 0.00 38 1012.1
20260504202459 21 324 3.2 8.0 0.00 0.00 0.00 37 1012.0
20260504201956 21 294 8.0 12.9 0.00 0.00 0.00 37 1012.0
20260504201453 21 1 1.6 8.0 0.00 0.00 0.00 40 1012.2
20260504200950 21 238 3.2 9.7 0.00 0.00 0.00 40 1011.9
20260504200447 21 12 1.6 9.7 0.00 0.00 0.00 39 1012.1
20260504195944 21 289 4.8 11.3 0.00 0.00 0.00 37 1012.0
20260504195439 20 12 4.8 20.9 0.00 0.00 0.00 38 1012.1
20260504194936 21 15 4.8 9.7 0.00 0.00 0.00 41 1012.2
20260504194432 21 328 1.6 12.9 0.00 0.00 0.00 39 1012.4
20260504193928 21 269 6.4 14.5 0.00 0.00 0.00 38 1012.3
20260504193426 21 111 1.6 4.8 0.00 0.00 0.00 41 1012.2
20260504192925 21 302 1.6 8.0 0.00 0.00 0.00 41 1012.4
20260504192421 20 11 9.7 16.1 0.00 0.00 0.00 39 1012.4
20260504191920 21 23 1.6 20.9 0.00 0.00 0.00 40 1012.4
20260504191418 20 57 1.6 3.2 0.00 0.00 0.00 39 1012.3
20260504190913 20 309 4.8 8.0 0.00 0.00 0.00 41 1012.5
20260504190409 20 83 3.2 9.7 0.00 0.00 0.00 40 1012.6
20260504185906 19 36 6.4 12.9 0.00 0.00 0.00 38 1012.6
20260504185403 20 291 9.7 14.5 0.00 0.00 0.00 40 1012.5
20260504184859 20 12 3.2 4.8 0.00 0.00 0.00 40 1012.7
20260504184355 19 320 8.0 12.9 0.00 0.00 0.00 41 1012.8
20260504183851 20 222 4.8 14.5 0.00 0.00 0.00 41 1012.8
20260504183349 20 7 11.3 17.7 0.00 0.00 0.00 41 1012.7
20260504182846 20 3 1.6 8.0 0.00 0.00 0.00 43 1012.7
20260504182343 20 241 4.8 17.7 0.00 0.00 0.00 39 1012.7
20260504181839 20 258 6.4 11.3 0.00 0.00 0.00 39 1012.8
20260504181337 20 354 3.2 8.0 0.00 0.00 0.00 41 1013.1
20260504180836 20 352 8.0 9.7 0.00 0.00 0.00 40 1012.8
20260504180334 20 284 4.8 12.9 0.00 0.00 0.00 40 1013.3
20260504175832 20 237 8.0 17.7 0.00 0.00 0.00 40 1013.1
20260504175328 20 292 3.2 9.7 0.00 0.00 0.00 42 1013.1
20260504174827 20 242 4.8 12.9 0.00 0.00 0.00 43 1013.5
20260504174324 19 345 4.8 9.7 0.00 0.00 0.00 42 1013.5
20260504173821 20 32 3.2 11.3 0.00 0.00 0.00 43 1013.4
20260504173317 19 185 4.8 14.5 0.00 0.00 0.00 41 1013.6
20260504172814 20 340 4.8 9.7 0.00 0.00 0.00 40 1013.4
20260504172311 19 186 6.4 9.7 0.00 0.00 0.00 39 1013.3
20260504171807 19 253 4.8 14.5 0.00 0.00 0.00 40 1013.7
20260504171304 19 351 3.2 8.0 0.00 0.00 0.00 40 1013.5
20260504170801 18 310 9.7 11.3 0.00 0.00 0.00 41 1013.7
20260504170258 19 229 6.4 16.1 0.00 0.00 0.00 42 1013.7
20260504160216 17 316 6.4 9.7 0.00 0.00 0.00 41 1014.6
20260504151144 15 266 8.0 11.3 0.00 0.00 0.00 43 1014.9
20260504150641 15 299 4.8 16.1 0.00 0.00 0.00 44 1015.0
20260504150138 15 315 4.8 9.7 0.00 0.00 0.00 43 1015.0
20260504141107 15 217 9.7 16.1 0.00 0.00 0.00 45 1015.4
20260504140604 13 314 3.2 8.0 0.00 0.00 0.00 46 1015.0
20260504130528 13 341 4.8 14.5 0.00 0.00 0.00 45 1015.6
20260504110416 8 347 1.6 1.6 0.00 0.00 0.00 61 1016.1
20260504100332 5 1 0.0 1.6 0.00 0.00 0.00 66 1015.7
20260504081726 7 48 1.6 1.6 0.00 0.00 0.00 61 1015.7
20260504081222 7 24 0.0 8.0 0.00 0.00 0.00 60 1015.9
20260504080719 7 4 3.2 9.7 0.00 0.00 0.00 59 1015.8
20260504080215 7 135 1.6 4.8 0.00 0.00 0.00 58 1015.8
20260504070143 7 346 3.2 3.2 0.00 0.00 0.00 58 1015.8
20260504060103 8 14 0.0 11.3 0.00 0.00 0.00 57 1015.3
20260504050531 8 278 4.8 9.7 0.00 0.00 0.00 55 1015.3
20260504045525 8 339 1.6 4.8 0.00 0.00 0.00 56 1015.3
20260504045021 8 2 0.0 4.8 0.00 0.00 0.00 55 1015.4
20260504044518 8 4 0.0 3.2 0.00 0.00 0.00 56 1015.6
20260504044015 8 358 3.2 4.8 0.00 0.00 0.00 55 1015.3
20260504043512 8 5 0.0 8.0 0.00 0.00 0.00 55 1015.4
20260504043010 8 359 1.6 8.0 0.00 0.00 0.00 55 1015.2
20260504042506 8 356 1.6 3.2 0.00 0.00 0.00 56 1015.2
20260504042003 8 343 1.6 3.2 0.00 0.00 0.00 55 1015.1
20260504041459 8 359 0.0 4.8 0.00 0.00 0.00 55 1015.2
20260504040955 8 357 1.6 3.2 0.00 0.00 0.00 55 1015.3
20260504040453 8 47 3.2 8.0 0.00 0.00 0.00 54 1015.1
20260504035949 8 358 1.6 3.2 0.00 0.00 0.00 56 1015.1
20260504035446 8 7 3.2 3.2 0.00 0.00 0.00 54 1015.0
20260504034943 8 7 0.0 1.6 0.00 0.00 0.00 56 1015.1
20260504034440 7 5 0.0 3.2 0.00 0.00 0.00 55 1015.1
20260504033937 8 5 0.0 3.2 0.00 0.00 0.00 58 1015.1
20260504033435 7 207 1.6 1.6 0.00 0.00 0.00 58 1015.1
20260504032932 8 8 0.0 3.2 0.00 0.00 0.00 55 1015.1
20260504032429 8 8 0.0 3.2 0.00 0.00 0.00 55 1015.1
20260504031925 8 326 0.0 3.2 0.00 0.00 0.00 57 1015.1
20260504031422 8 322 1.6 1.6 0.00 0.00 0.00 55 1015.2
20260504030919 8 15 0.0 1.6 0.00 0.00 0.00 55 1015.2
20260504030416 8 25 0.0 3.2 0.00 0.00 0.00 56 1015.2
20260504025912 8 4 0.0 3.2 0.00 0.00 0.00 55 1015.0
20260504025409 8 3 0.0 3.2 0.00 0.00 0.00 57 1014.9
20260504024906 8 2 1.6 1.6 0.00 0.00 0.00 56 1015.1
20260504024403 8 3 1.6 1.6 0.00 0.00 0.00 54 1015.2
20260504023900 8 0 1.6 4.8 0.00 0.00 0.00 54 1015.1
20260504023356 7 356 1.6 3.2 0.00 0.00 0.00 57 1015.2
20260504022852 7 2 1.6 3.2 0.00 0.00 0.00 56 1015.2
20260504022349 7 3 0.0 1.6 0.00 0.00 0.00 57 1015.2
20260504021845 7 2 0.0 1.6 0.00 0.00 0.00 58 1015.1
20260504021343 7 31 0.0 3.2 0.00 0.00 0.00 58 1015.4
20260504020840 7 3 0.0 1.6 0.00 0.00 0.00 58 1015.0
20260504020336 7 2 0.0 1.6 0.00 0.00 0.00 57 1015.2
20260504015832 7 2 0.0 1.6 0.00 0.00 0.00 58 1015.2
20260504015329 7 2 0.0 1.6 0.00 0.00 0.00 58 1015.3
20260504014825 7 2 0.0 1.6 0.00 0.00 0.00 59 1015.1
20260504014321 7 3 0.0 0.0 0.00 0.00 0.00 57 1015.0
20260504013819 7 3 0.0 0.0 0.00 0.00 0.00 58 1015.2
20260504013317 7 3 0.0 0.0 0.00 0.00 0.00 57 1015.0
20260504012813 7 3 0.0 0.0 0.00 0.00 0.00 56 1015.0
20260504012311 7 3 0.0 0.0 0.00 0.00 0.00 56 1014.9
20260504011808 7 3 0.0 0.0 0.00 0.00 0.00 57 1014.8
20260504011304 7 3 0.0 0.0 0.00 0.00 0.00 58 1014.8
20260504010800 7 3 0.0 0.0 0.00 0.00 0.00 58 1015.0
20260504010256 7 3 0.0 0.0 0.00 0.00 0.00 56 1014.9
20260504005753 7 3 0.0 0.0 0.00 0.00 0.00 57 1015.0
20260504005250 8 3 0.0 0.0 0.00 0.00 0.00 54 1014.7
20260504004748 8 3 0.0 0.0 0.00 0.00 0.00 54 1014.9